This demonstration page uses our WeatherBlox Daily Observations layout. Learn more.

Left ArrowRight Arrow

Hourly Observations for May 27, 2015

Temp ( °F °C ) Dew Point ( °F °C ) Humidity (%) Winds ( mph kmh ) Pressure ( in mb ) Visibility ( mi km ) Precip ( " mm )
12:52 am 00:52 Clear 58 14.4 54 12.2 87 87 Calm 29.92 1013 10 16 0.00 0.00
1:52 am 01:52 Clear 55 12.8 54 12.2 96 96 S 3 6 29.93 1014 10 16 0.00 0.00
2:52 am 02:52 Clear 56 13.3 53 11.7 90 90 Calm 29.93 1014 10 16 0.00 0.00
3:52 am 03:52 Clear 54 12.2 53 11.7 97 97 SE 5 7 29.96 1015 7 11 0.00 0.00
4:52 am 04:52 Clear 55 12.8 53 11.7 93 93 Calm 29.99 1016 10 16 0.00 0.00
5:52 am 05:52 Mostly Clear with Patchy Fog 54 12.2 52 11.1 93 93 Calm 30.00 1016 9 14 0.00 0.00
6:52 am 06:52 Sunny with Patchy Fog 55 12.8 53 11.7 93 93 SSE 3 6 30.01 1016 9 14 0.00 0.00
7:52 am 07:52 Sunny 60 15.6 56 13.3 86 86 SSE 5 7 30.03 1017 10 16 0.00 0.00
8:52 am 08:52 Sunny 65 18.3 55 12.8 70 70 NW 5 7 30.04 1017 10 16 0.00 0.00
9:52 am 09:52 Sunny 69 20.6 56 13.3 63 63 Calm 30.04 1017 10 16 0.00 0.00
10:52 am 10:52 Partly Cloudy 72 22.2 58 14.4 61 61 SSE 3 6 30.04 1017 10 16 0.00 0.00
11:52 am 11:52 Partly Cloudy 77 25 56 13.3 48 48 Calm 30.04 1017 10 16 0.00 0.00
12:52 pm 12:52 Partly Cloudy 80 26.7 53 11.7 39 39 S 7 11 30.04 1017 10 16 0.00 0.00
1:52 pm 13:52 Partly Cloudy 82 27.8 49 9.4 32 32 SW 6 9 30.04 1017 10 16 0.00 0.00
2:52 pm 14:52 Partly Cloudy 84 28.9 51 10.6 32 32 SW 8 13 30.03 1017 10 16 0.00 0.00
3:52 pm 15:52 Partly Cloudy 83 28.3 48 8.9 30 30 SW 7 11 30.03 1017 10 16 0.00 0.00
4:52 pm 16:52 Cloudy 84 28.9 50 10 31 31 S 9 15 30.01 1016 10 16 0.00 0.00
5:52 pm 17:52 Cloudy 82 27.8 48 8.9 31 31 S 7 11 30.01 1016 10 16 0.00 0.00
6:52 pm 18:52 Mostly Cloudy 81 27.2 50 10 34 34 S 10 17 30.00 1016 10 16 0.00 0.00
7:52 pm 19:52 Mostly Cloudy 78 25.6 54 12.2 43 43 SSE 8 13 30.00 1016 10 16 0.00 0.00
8:52 pm 20:52 Mostly Cloudy 71 21.7 55 12.8 57 57 SSE 8 13 30.01 1016 10 16 0.00 0.00
9:52 pm 21:52 Cloudy 70 21.1 54 12.2 57 57 S 6 9 30.03 1017 10 16 0.00 0.00
10:52 pm 22:52 Cloudy 67 19.4 55 12.8 66 66 SE 7 11 30.05 1018 10 16 0.00 0.00
11:52 pm 23:52 Cloudy 67 19.4 53 11.7 61 61 SE 7 11 30.05 1018 10 16 0.00 0.00

Powered by AerisWeather